Skip Page Navigation
NASA JPL Caltech
NASA Logo - Jet Propulsion Laboratory + View the NASA Portal
+ Near-Earth Object (NEO) Program
Search JPL
JPL Home Earth Solar System Stars & Galaxies Technology
JPL Solar System Dynamics
BODIES ORBITS EPHEMERIDES TOOLS PHYSICAL DATA DISCOVERY FAQ SITE MAP
JPL Small-Body Database Browser
Search: [ help ]  
96391 (1998 CZ1)
Classification: Main-belt Asteroid          SPK-ID: 2096391
Ephemeris | Orbit Diagram | Orbital Elements | Physical Parameters | Discovery Circumstances | Close-Approach Data ]

[ show orbit diagram ]
Orbital Elements at Epoch 2457000.5 (2014-Dec-09.0) TDB
Reference: JPL 9 (heliocentric ecliptic J2000)
 Element Value Uncertainty (1-sigma)   Units 
e .1118981154737022 9.7995e-08  
a 2.606363819620462 2.682e-08 AU
q 2.314716619966092 2.5615e-07 AU
i 13.41888985954642 1.0437e-05 deg
node 94.82867095902323 3.8392e-05 deg
peri 139.5998259406693 6.1452e-05 deg
M 320.1964092929088 5.1945e-05 deg
tp 2457170.430265286228
(2015-May-27.93026529)
0.00022298 JED
period 1536.919017010779
4.21
2.3723e-05
6.495e-08
d
yr
n .2342348529854096 3.6155e-09 deg/d
Q 2.898011019274832 2.9821e-08 AU
  Orbit Determination Parameters
   # obs. used (total)      531  
   data-arc span      7600 days (20.81 yr)  
   first obs. used      1994-06-06  
   last obs. used      2015-03-28  
   planetary ephem.      DE431  
   SB-pert. ephem.      SB431-BIG16  
   condition code      0  
   fit RMS      .59704  
   data source      ORB  
   producer      Otto Matic  
   solution date      2015-Apr-07 20:21:43  

Additional Information
 Earth MOID = 1.31883 AU 
 T_jup = 3.365 
[ show covariance matrix ]

Ephemeris | Orbit Diagram | Orbital Elements | Physical Parameters | Discovery Circumstances | Close-Approach Data ]

Physical Parameter Table
Parameter Symbol Value Units Sigma Reference Notes
absolute magnitude H 14.2 mag n/a MPO253918  

96391 (1998 CZ1)          Discovered 1998-Feb-06 by BAO Schmidt CCD Asteroid Program at Xinglong
Reference: 20050224/Numbers.arcLast Updated: 2005-02-28

[ show close-approach data ]
Alternate Designations
 1998 CZ1 = 1994 LK7 
Ephemeris | Orbit Diagram | Orbital Elements | Physical Parameters | Discovery Circumstances | Close-Approach Data ]
ABOUT SSD CREDITS/AWARDS PRIVACY/COPYRIGHT GLOSSARY LINKS
FirstGov 2015-Apr-27 10:33 UT
(server date/time)  
NASA Home Page
Site Manager:   Ryan S. Park
Webmaster  Alan B. Chamberlin